SWR77 LTFM-LIRN

Flight info

Callsign SWR77
Flight time N/A
Altitude 40000
Route BARPE1G BARPE UM603 GOLDO DCT PINDO DCT GOKEL DCT TOPNO DCT DOGUS/N0342F180 L995 EKTOL EKTOL1C
Aircraft A333/H-SDE3GHIJ2J3J5M1RVWXY/LB2D1

Departure

Time 2026-05-08 04:36
Airport İstanbul Airport (LTFM)

Arrival

Time N/A
Airport Naples International Airport (LIRN)
Time Latitude Longitude Altitude Speed Heading
2026-05-08 04:03 41.25822 28.73482 342 ft 0 kts 108°
2026-05-08 04:22 41.25825 28.73472 342 ft 4 kts 104°
2026-05-08 04:22 41.25827 28.73437 342 ft 4 kts 77°
2026-05-08 04:22 41.25817 28.73406 342 ft 4 kts 50°
2026-05-08 04:23 41.25797 28.73382 342 ft 4 kts 31°
2026-05-08 04:23 41.25773 28.73366 342 ft 4 kts 18°
2026-05-08 04:23 41.25748 28.73358 342 ft 3 kts
2026-05-08 04:23 41.25743 28.73358 342 ft 0 kts
2026-05-08 04:26 41.25744 28.73358 342 ft 1 kts
2026-05-08 04:26 41.25768 28.73358 342 ft 6 kts
2026-05-08 04:26 41.25815 28.73352 342 ft 7 kts 333°
2026-05-08 04:27 41.25840 28.73285 342 ft 10 kts 294°
2026-05-08 04:27 41.25911 28.73240 342 ft 15 kts 358°
2026-05-08 04:27 41.26039 28.73239 342 ft 20 kts 359°
2026-05-08 04:27 41.26184 28.73235 342 ft 21 kts 359°
2026-05-08 04:28 41.26332 28.73237 342 ft 21 kts
2026-05-08 04:28 41.26480 28.73243 342 ft 21 kts 355°
2026-05-08 04:28 41.26628 28.73234 342 ft 22 kts 358°
2026-05-08 04:28 41.26768 28.73230 342 ft 19 kts 356°
2026-05-08 04:29 41.26889 28.73227 342 ft 16 kts
2026-05-08 04:29 41.26954 28.73152 342 ft 14 kts 301°
2026-05-08 04:29 41.27060 28.73106 342 ft 22 kts 359°
2026-05-08 04:29 41.27234 28.73101 342 ft 26 kts
2026-05-08 04:30 41.27413 28.73109 342 ft 25 kts
2026-05-08 04:30 41.27543 28.73108 342 ft 12 kts 355°
2026-05-08 04:30 41.27588 28.73026 342 ft 12 kts 288°
2026-05-08 04:30 41.27673 28.72970 342 ft 20 kts 355°
2026-05-08 04:31 41.27828 28.72969 342 ft 23 kts
2026-05-08 04:31 41.27990 28.72966 342 ft 23 kts 356°
2026-05-08 04:31 41.28150 28.72968 342 ft 23 kts 357°
2026-05-08 04:31 41.28309 28.72963 342 ft 23 kts 359°
2026-05-08 04:32 41.28467 28.72961 342 ft 23 kts
2026-05-08 04:32 41.28625 28.72960 342 ft 22 kts 357°
2026-05-08 04:32 41.28781 28.72955 342 ft 22 kts 359°
2026-05-08 04:32 41.28935 28.72952 342 ft 22 kts 358°
2026-05-08 04:33 41.29081 28.72946 342 ft 21 kts 358°
2026-05-08 04:33 41.29215 28.72942 342 ft 18 kts 360°
2026-05-08 04:33 41.29343 28.72941 342 ft 16 kts
2026-05-08 04:33 41.29432 28.72940 342 ft 11 kts 343°
2026-05-08 04:34 41.29470 28.72837 342 ft 14 kts 268°
2026-05-08 04:34 41.29468 28.72712 342 ft 13 kts 269°
2026-05-08 04:34 41.29469 28.72599 342 ft 14 kts 272°
2026-05-08 04:34 41.29459 28.72491 342 ft 8 kts 229°
2026-05-08 04:35 41.29398 28.72464 342 ft 10 kts 180°
2026-05-08 04:35 41.29311 28.72466 342 ft 24 kts 179°
2026-05-08 04:35 41.28957 28.72470 342 ft 76 kts 179°
2026-05-08 04:35 41.28267 28.72485 342 ft 123 kts 180°
2026-05-08 04:36 41.27263 28.72493 399 ft 160 kts 181°
2026-05-08 04:36 41.26137 28.72494 938 ft 162 kts 181°
2026-05-08 04:36 41.24996 28.72546 1555 ft 164 kts 179°
2026-05-08 04:36 41.23845 28.72634 2127 ft 169 kts 179°
2026-05-08 04:37 41.22624 28.72713 2474 ft 185 kts 179°
2026-05-08 04:37 41.21231 28.72754 2635 ft 217 kts 180°
2026-05-08 04:37 41.19590 28.72748 2758 ft 253 kts 187°
2026-05-08 04:37 41.17917 28.72039 3582 ft 252 kts 210°
2026-05-08 04:38 41.16519 28.70624 4453 ft 256 kts 220°
2026-05-08 04:38 41.15134 28.69062 4866 ft 272 kts 221°
2026-05-08 04:38 41.13709 28.67394 5729 ft 270 kts 224°
2026-05-08 04:38 41.12563 28.65485 6838 ft 262 kts 240°
2026-05-08 04:39 41.11874 28.63227 7641 ft 268 kts 255°
2026-05-08 04:39 41.11394 28.60828 8471 ft 271 kts 255°
2026-05-08 04:39 41.10927 28.58379 9278 ft 274 kts 256°
2026-05-08 04:39 41.10471 28.55909 10119 ft 276 kts 257°
2026-05-08 04:40 41.10009 28.53354 10513 ft 298 kts 257°
2026-05-08 04:40 41.09512 28.50544 10607 ft 327 kts 257°
2026-05-08 04:40 41.08991 28.47576 11355 ft 329 kts 258°
2026-05-08 04:40 41.08473 28.44641 12223 ft 332 kts 258°
2026-05-08 04:41 41.07941 28.41598 13001 ft 337 kts 258°
2026-05-08 04:41 41.07411 28.38596 13756 ft 341 kts 258°
2026-05-08 04:41 41.06871 28.35535 14607 ft 337 kts 257°
2026-05-08 04:41 41.06324 28.32451 15106 ft 350 kts 258°
2026-05-08 04:42 41.05772 28.29303 15934 ft 350 kts 258°
2026-05-08 04:42 41.05217 28.26139 16603 ft 355 kts 258°
2026-05-08 04:42 41.04651 28.22924 17319 ft 359 kts 258°
2026-05-08 04:42 41.04079 28.19675 17995 ft 363 kts 258°
2026-05-08 04:43 41.03502 28.16410 18699 ft 365 kts 258°
2026-05-08 04:43 41.02928 28.13164 19356 ft 368 kts 258°
2026-05-08 04:43 41.02339 28.09835 19974 ft 373 kts 258°
2026-05-08 04:43 41.01744 28.06480 20614 ft 376 kts 258°
2026-05-08 04:44 41.01143 28.03097 21225 ft 379 kts 258°
2026-05-08 04:44 41.00535 27.99678 21797 ft 383 kts 258°
2026-05-08 04:44 40.99923 27.96235 22466 ft 384 kts 258°
2026-05-08 04:44 40.99305 27.92776 23007 ft 388 kts 258°
2026-05-08 04:45 40.98682 27.89287 23535 ft 391 kts 258°
2026-05-08 04:45 40.98052 27.85774 24106 ft 393 kts 258°
2026-05-08 04:45 40.97407 27.82224 24617 ft 396 kts 258°
2026-05-08 04:45 40.96761 27.78718 25167 ft 398 kts 258°
2026-05-08 04:46 40.96106 27.75148 25668 ft 400 kts 258°
2026-05-08 04:46 40.95450 27.71558 26178 ft 402 kts 258°
2026-05-08 04:46 40.94792 27.67954 26664 ft 404 kts 259°
2026-05-08 04:46 40.94130 27.64326 27150 ft 406 kts 259°
2026-05-08 04:47 40.93464 27.60676 27632 ft 408 kts 259°
2026-05-08 04:47 40.92797 27.57024 28076 ft 410 kts 259°
2026-05-08 04:47 40.92125 27.53340 28519 ft 412 kts 259°
2026-05-08 04:47 40.91450 27.49648 28945 ft 414 kts 259°
2026-05-08 04:48 40.90772 27.45942 29363 ft 416 kts 260°
2026-05-08 04:48 40.90088 27.42206 29775 ft 417 kts 260°
2026-05-08 04:48 40.89498 27.38514 30155 ft 417 kts 264°
2026-05-08 04:48 40.89176 27.34649 30632 ft 414 kts 270°
2026-05-08 04:49 40.89164 27.30902 31060 ft 413 kts 276°
2026-05-08 04:49 40.89445 27.27140 31480 ft 411 kts 280°
2026-05-08 04:49 40.89835 27.23386 31888 ft 412 kts 280°
2026-05-08 04:49 40.90101 27.20891 32170 ft 412 kts 280°
2026-05-08 04:50 40.90505 27.17159 32717 ft 408 kts 281°
2026-05-08 04:50 40.90908 27.13478 33358 ft 402 kts 281°
2026-05-08 04:50 40.91308 27.09838 34001 ft 395 kts 281°
2026-05-08 04:50 40.91706 27.06260 34495 ft 393 kts 281°
2026-05-08 04:51 40.92106 27.02683 34829 ft 393 kts 281°
2026-05-08 04:51 40.92507 26.99101 35197 ft 393 kts 280°
2026-05-08 04:51 40.92687 26.95500 35623 ft 393 kts 273°
2026-05-08 04:51 40.92530 26.91882 36005 ft 394 kts 270°
2026-05-08 04:52 40.92329 26.88263 36328 ft 394 kts 270°
2026-05-08 04:52 40.92124 26.84657 36704 ft 392 kts 270°
2026-05-08 04:52 40.91912 26.81066 37076 ft 390 kts 270°
2026-05-08 04:52 40.91698 26.77495 37373 ft 390 kts 270°
2026-05-08 04:53 40.91480 26.73916 37686 ft 389 kts 270°
2026-05-08 04:53 40.91259 26.70357 38007 ft 387 kts 269°
2026-05-08 04:53 40.91039 26.66867 38353 ft 385 kts 269°
2026-05-08 04:53 40.90815 26.63348 38663 ft 383 kts 269°
2026-05-08 04:54 40.90590 26.59839 38919 ft 383 kts 269°
2026-05-08 04:54 40.90364 26.56338 39161 ft 382 kts 269°
2026-05-08 04:54 40.90136 26.52821 39296 ft 384 kts 269°
2026-05-08 04:54 40.89905 26.49290 39456 ft 385 kts 269°
2026-05-08 04:55 40.89673 26.45764 39665 ft 385 kts 269°
2026-05-08 04:55 40.89440 26.42239 39874 ft 385 kts 269°
2026-05-08 04:55 40.89206 26.38723 40120 ft 383 kts 268°
2026-05-08 04:55 40.88972 26.35223 40366 ft 381 kts 268°
2026-05-08 04:56 40.88737 26.31745 40611 ft 379 kts 268°
2026-05-08 04:56 40.88506 26.28331 40853 ft 377 kts 268°
2026-05-08 04:56 40.88271 26.24886 41023 ft 376 kts 268°
2026-05-08 04:56 40.88068 26.21431 41070 ft 378 kts 269°
2026-05-08 04:57 40.87682 26.14437 41086 ft 385 kts 269°
2026-05-08 04:57 40.87297 26.07317 41086 ft 392 kts 269°
2026-05-08 04:58 40.86904 26.00065 41084 ft 398 kts 268°
2026-05-08 04:58 40.86507 25.92768 41082 ft 398 kts 268°
2026-05-08 04:59 40.86105 25.85491 41080 ft 395 kts 268°
2026-05-08 04:59 40.85704 25.78309 41080 ft 393 kts 268°
2026-05-08 05:00 40.85298 25.71120 41081 ft 392 kts 268°
2026-05-08 05:00 40.84889 25.63946 41082 ft 391 kts 268°
2026-05-08 05:01 40.84476 25.56780 41083 ft 391 kts 268°
2026-05-08 05:01 40.84057 25.49604 41083 ft 392 kts 268°
2026-05-08 05:02 40.83632 25.42412 41084 ft 393 kts 268°
2026-05-08 05:02 40.83203 25.35208 41084 ft 393 kts 268°
2026-05-08 05:03 40.82770 25.28023 41084 ft 393 kts 268°
2026-05-08 05:03 40.82331 25.20827 41083 ft 393 kts 268°
2026-05-08 05:04 40.81890 25.13682 41081 ft 392 kts 267°
2026-05-08 05:04 40.81445 25.06521 41081 ft 391 kts 267°
2026-05-08 05:05 40.80995 24.99373 41081 ft 391 kts 267°
2026-05-08 05:05 40.80541 24.92212 41081 ft 391 kts 267°
2026-05-08 05:06 40.80081 24.85057 41081 ft 390 kts 267°
2026-05-08 05:06 40.79619 24.77923 41081 ft 390 kts 267°
2026-05-08 05:07 40.79153 24.70805 41081 ft 389 kts 267°
2026-05-08 05:07 40.78686 24.63730 41081 ft 389 kts 267°
2026-05-08 05:08 40.78211 24.56607 41081 ft 389 kts 267°
2026-05-08 05:08 40.77732 24.49484 41081 ft 389 kts 266°
2026-05-08 05:09 40.77248 24.42369 41081 ft 388 kts 266°
2026-05-08 05:09 40.76762 24.35279 41082 ft 388 kts 266°
2026-05-08 05:10 40.76024 24.24639 41082 ft 388 kts 266°
2026-05-08 05:11 40.75526 24.17539 41083 ft 388 kts 266°
2026-05-08 05:11 40.75025 24.10449 41084 ft 388 kts 266°
2026-05-08 05:12 40.74522 24.03405 41083 ft 388 kts 266°
2026-05-08 05:12 40.74013 23.96329 41084 ft 387 kts 266°
2026-05-08 05:13 40.73498 23.89252 41083 ft 386 kts 266°
2026-05-08 05:13 40.72982 23.82215 41084 ft 385 kts 266°
2026-05-08 05:14 40.72461 23.75170 41084 ft 385 kts 266°
2026-05-08 05:14 40.71941 23.68172 41084 ft 386 kts 266°
2026-05-08 05:15 40.71410 23.61106 41084 ft 387 kts 266°
2026-05-08 05:15 40.70874 23.54036 41084 ft 388 kts 266°
2026-05-08 05:16 40.70336 23.46987 41083 ft 388 kts 266°
2026-05-08 05:16 40.69788 23.39874 41083 ft 387 kts 266°
2026-05-08 05:17 40.69243 23.32848 41082 ft 387 kts 265°
2026-05-08 05:17 40.68691 23.25803 41082 ft 386 kts 265°
2026-05-08 05:18 40.68135 23.18757 41082 ft 386 kts 265°
2026-05-08 05:18 40.67576 23.11725 41081 ft 386 kts 265°
2026-05-08 05:19 40.67012 23.04676 41082 ft 387 kts 265°
2026-05-08 05:19 40.66445 22.97660 41082 ft 387 kts 265°
2026-05-08 05:20 40.65871 22.90591 41083 ft 388 kts 265°
2026-05-08 05:20 40.65290 22.83515 41083 ft 388 kts 265°
2026-05-08 05:21 40.64707 22.76455 41084 ft 388 kts 265°
2026-05-08 05:21 40.64119 22.69389 41086 ft 387 kts 265°
2026-05-08 05:22 40.63530 22.62379 41088 ft 387 kts 265°
2026-05-08 05:22 40.62934 22.55326 41092 ft 387 kts 265°
2026-05-08 05:23 40.62334 22.48277 41096 ft 387 kts 264°
2026-05-08 05:23 40.61731 22.41242 41100 ft 386 kts 264°
2026-05-08 05:24 40.61127 22.34250 41105 ft 386 kts 264°
2026-05-08 05:24 40.60515 22.27212 41112 ft 386 kts 264°
2026-05-08 05:25 40.59903 22.20229 41118 ft 386 kts 264°
2026-05-08 05:25 40.59281 22.13187 41124 ft 386 kts 264°
2026-05-08 05:26 40.58657 22.06156 41128 ft 386 kts 264°
2026-05-08 05:26 40.58028 21.99134 41130 ft 386 kts 264°
2026-05-08 05:27 40.57400 21.92162 41133 ft 386 kts 264°
2026-05-08 05:27 40.56762 21.85129 41134 ft 386 kts 264°
2026-05-08 05:28 40.56123 21.78134 41138 ft 387 kts 264°
2026-05-08 05:28 40.55477 21.71112 41139 ft 387 kts 264°
2026-05-08 05:29 40.54826 21.64076 41138 ft 387 kts 264°
2026-05-08 05:29 40.54174 21.57089 41137 ft 386 kts 264°
2026-05-08 05:30 40.53516 21.50070 41136 ft 386 kts 263°
2026-05-08 05:30 40.52854 21.43077 41136 ft 385 kts 263°
2026-05-08 05:31 40.52301 21.37257 41135 ft 385 kts 263°
2026-05-08 05:31 40.51633 21.30269 41134 ft 385 kts 263°
2026-05-08 05:32 40.50960 21.23277 41134 ft 386 kts 263°
2026-05-08 05:32 40.50282 21.16274 41133 ft 386 kts 263°
2026-05-08 05:33 40.49599 21.09272 41133 ft 386 kts 263°
2026-05-08 05:33 40.48917 21.02318 41132 ft 386 kts 263°
2026-05-08 05:34 40.48259 20.95319 41131 ft 385 kts 266°
2026-05-08 05:34 40.48414 20.88288 41131 ft 386 kts 273°
2026-05-08 05:35 40.48819 20.81258 41131 ft 386 kts 273°
2026-05-08 05:35 40.49263 20.74200 41100 ft 387 kts 274°
2026-05-08 05:36 40.49724 20.67164 41094 ft 386 kts 274°
2026-05-08 05:36 40.50190 20.60183 41091 ft 385 kts 274°
2026-05-08 05:37 40.50659 20.53174 41089 ft 385 kts 274°
2026-05-08 05:37 40.51127 20.46164 41087 ft 384 kts 274°
2026-05-08 05:38 40.51594 20.39152 41090 ft 385 kts 274°
2026-05-08 05:38 40.52057 20.32139 41087 ft 385 kts 274°
2026-05-08 05:39 40.52514 20.25172 41083 ft 385 kts 274°
2026-05-08 05:39 40.52970 20.18153 41079 ft 384 kts 274°
2026-05-08 05:40 40.53421 20.11142 41075 ft 384 kts 274°
2026-05-08 05:40 40.53868 20.04142 41072 ft 384 kts 273°
2026-05-08 05:41 40.54310 19.97140 41067 ft 384 kts 273°
2026-05-08 05:41 40.54749 19.90133 41064 ft 385 kts 273°
2026-05-08 05:42 40.55182 19.83140 41035 ft 386 kts 273°
2026-05-08 05:42 40.55613 19.76125 41029 ft 385 kts 273°
2026-05-08 05:43 40.56039 19.69110 40989 ft 385 kts 273°
2026-05-08 05:43 40.56461 19.62096 40982 ft 384 kts 273°
2026-05-08 05:44 40.56877 19.55084 40980 ft 384 kts 273°
2026-05-08 05:44 40.57290 19.48070 40978 ft 384 kts 272°
2026-05-08 05:45 40.57700 19.41043 40976 ft 385 kts 272°
2026-05-08 05:45 40.58104 19.34050 40974 ft 385 kts 272°
2026-05-08 05:46 40.58506 19.27012 40971 ft 385 kts 272°
2026-05-08 05:46 40.58904 19.19978 40969 ft 386 kts 272°
2026-05-08 05:47 40.59298 19.12923 40966 ft 386 kts 272°
2026-05-08 05:47 40.59685 19.05925 40963 ft 386 kts 272°
2026-05-08 05:48 40.60140 18.98890 40959 ft 387 kts 276°
2026-05-08 05:48 40.60924 18.91852 40957 ft 388 kts 276°
2026-05-08 05:49 40.61827 18.84867 40954 ft 389 kts 277°
2026-05-08 05:49 40.62764 18.77801 40951 ft 389 kts 277°
2026-05-08 05:50 40.63692 18.70829 40949 ft 389 kts 277°
2026-05-08 05:50 40.64628 18.63792 40946 ft 389 kts 277°
2026-05-08 05:51 40.65559 18.56763 40949 ft 388 kts 277°
2026-05-08 05:51 40.66478 18.49795 40948 ft 388 kts 277°
2026-05-08 05:52 40.67398 18.42788 40946 ft 388 kts 276°
2026-05-08 05:52 40.68312 18.35785 40943 ft 388 kts 276°
2026-05-08 05:53 40.69224 18.28771 40941 ft 388 kts 276°
2026-05-08 05:53 40.70131 18.21757 40938 ft 388 kts 276°
2026-05-08 05:54 40.71034 18.14734 40937 ft 388 kts 276°
2026-05-08 05:54 40.71933 18.07708 40935 ft 388 kts 276°
2026-05-08 05:55 40.72827 18.00685 40934 ft 388 kts 276°
2026-05-08 05:55 40.73711 17.93713 40934 ft 388 kts 276°
2026-05-08 05:56 40.74598 17.86672 40939 ft 389 kts 276°
2026-05-08 05:56 40.75482 17.79617 40943 ft 390 kts 276°
2026-05-08 05:57 40.76364 17.72548 40951 ft 390 kts 276°
2026-05-08 05:57 40.77241 17.65477 40961 ft 391 kts 276°
2026-05-08 05:58 40.78116 17.58389 40972 ft 391 kts 276°
2026-05-08 05:58 40.78985 17.51302 40981 ft 391 kts 276°
2026-05-08 05:59 40.79853 17.44197 40988 ft 392 kts 276°
2026-05-08 05:59 40.80716 17.37089 40991 ft 393 kts 275°
2026-05-08 05:59 40.81149 17.33516 40847 ft 397 kts 275°
2026-05-08 06:00 40.81580 17.29938 40605 ft 401 kts 275°
2026-05-08 06:00 40.82151 17.25202 40283 ft 402 kts 275°
2026-05-08 06:00 40.82587 17.21570 40071 ft 399 kts 275°
2026-05-08 06:01 40.82932 17.18694 40007 ft 393 kts 275°
2026-05-08 06:01 40.83763 17.11699 39971 ft 379 kts 275°
2026-05-08 06:02 40.84567 17.04873 39966 ft 375 kts 275°
2026-05-08 06:02 40.84972 17.01427 39451 ft 387 kts 275°
2026-05-08 06:02 40.85388 16.97915 39218 ft 384 kts 275°
2026-05-08 06:02 40.85796 16.94452 38942 ft 379 kts 275°
2026-05-08 06:03 40.86195 16.91038 38668 ft 373 kts 275°
2026-05-08 06:03 40.86586 16.87679 38374 ft 368 kts 274°
2026-05-08 06:03 40.86971 16.84358 38074 ft 363 kts 274°
2026-05-08 06:03 40.87350 16.81081 37766 ft 360 kts 274°
2026-05-08 06:04 40.87727 16.77822 37450 ft 358 kts 274°
2026-05-08 06:04 40.88103 16.74558 37125 ft 358 kts 274°
2026-05-08 06:04 40.88478 16.71296 36791 ft 359 kts 274°
2026-05-08 06:04 40.88848 16.68069 36455 ft 361 kts 274°
2026-05-08 06:05 40.89226 16.64773 36106 ft 364 kts 274°
2026-05-08 06:05 40.89607 16.61451 35749 ft 366 kts 274°
2026-05-08 06:05 40.89988 16.58116 35389 ft 368 kts 274°
2026-05-08 06:05 40.90371 16.54754 35024 ft 369 kts 273°
2026-05-08 06:06 40.90753 16.51388 34659 ft 371 kts 273°
2026-05-08 06:06 40.91136 16.48013 34289 ft 371 kts 273°
2026-05-08 06:06 40.91518 16.44626 33837 ft 373 kts 273°
2026-05-08 06:06 40.91899 16.41242 33408 ft 371 kts 273°
2026-05-08 06:07 40.92277 16.37874 32976 ft 369 kts 273°
2026-05-08 06:07 40.92651 16.34531 32546 ft 366 kts 273°
2026-05-08 06:07 40.93018 16.31209 32116 ft 364 kts 274°
2026-05-08 06:07 40.93382 16.27909 31691 ft 362 kts 274°
2026-05-08 06:08 40.93749 16.24616 31266 ft 361 kts 274°
2026-05-08 06:08 40.94113 16.21334 30841 ft 361 kts 274°
2026-05-08 06:08 40.94476 16.18047 30400 ft 362 kts 275°
2026-05-08 06:08 40.94833 16.14800 29978 ft 360 kts 275°
2026-05-08 06:09 40.95203 16.11478 29544 ft 360 kts 276°
2026-05-08 06:09 40.95687 16.08263 29120 ft 360 kts 278°
2026-05-08 06:09 40.96213 16.05028 28687 ft 359 kts 279°
2026-05-08 06:09 40.96747 16.01788 28255 ft 358 kts 279°
2026-05-08 06:10 40.97281 15.98571 27827 ft 357 kts 279°
2026-05-08 06:10 40.97818 15.95368 27402 ft 356 kts 279°
2026-05-08 06:10 40.98355 15.92169 26979 ft 356 kts 279°
2026-05-08 06:10 40.98893 15.88972 26554 ft 356 kts 280°
2026-05-08 06:11 40.99430 15.85778 26130 ft 355 kts 280°
2026-05-08 06:11 40.99968 15.82588 25708 ft 354 kts 280°
2026-05-08 06:11 41.00503 15.79407 25287 ft 353 kts 280°
2026-05-08 06:11 41.00856 15.77307 25010 ft 353 kts 280°
2026-05-08 06:12 41.01390 15.74135 24591 ft 352 kts 280°
2026-05-08 06:12 41.01919 15.70977 24175 ft 351 kts 280°
2026-05-08 06:12 41.02438 15.67822 23768 ft 350 kts 280°
2026-05-08 06:12 41.02961 15.64674 23353 ft 349 kts 280°
2026-05-08 06:13 41.03482 15.61544 22939 ft 347 kts 280°
2026-05-08 06:13 41.04000 15.58431 22547 ft 345 kts 280°
2026-05-08 06:13 41.04514 15.55342 22140 ft 343 kts 280°
2026-05-08 06:13 41.05026 15.52261 21730 ft 341 kts 280°
2026-05-08 06:14 41.05534 15.49202 21326 ft 339 kts 280°
2026-05-08 06:14 41.06039 15.46159 20918 ft 337 kts 280°
2026-05-08 06:14 41.06535 15.43161 20515 ft 335 kts 280°
2026-05-08 06:14 41.07033 15.40152 20111 ft 334 kts 279°
2026-05-08 06:15 41.07529 15.37150 19705 ft 332 kts 279°
2026-05-08 06:15 41.08020 15.34167 19301 ft 330 kts 279°
2026-05-08 06:15 41.08508 15.31200 18898 ft 328 kts 279°
2026-05-08 06:15 41.08994 15.28244 18495 ft 327 kts 279°
2026-05-08 06:16 41.09477 15.25298 18091 ft 325 kts 279°
2026-05-08 06:16 41.09955 15.22376 17690 ft 324 kts 279°
2026-05-08 06:16 41.10161 15.19438 17287 ft 317 kts 263°
2026-05-08 06:16 41.09665 15.16635 16900 ft 311 kts 245°
2026-05-08 06:17 41.07174 15.11986 16509 ft 320 kts 230°
2026-05-08 06:17 41.05758 15.09676 16289 ft 325 kts 229°
2026-05-08 06:17 41.04311 15.07364 16066 ft 326 kts 229°
2026-05-08 06:18 41.02848 15.05063 15844 ft 326 kts 229°
2026-05-08 06:18 41.01384 15.02777 15621 ft 325 kts 229°
2026-05-08 06:18 40.99917 15.00503 15397 ft 323 kts 228°
2026-05-08 06:18 40.99800 15.00322 15380 ft 323 kts 228°